• In Russia
  • List of Countries
  • For 7 days
  • Water Temperature
  • Weather Map
  • Weather Widgets
  • user-avatar
    Login

    Hourly Weather Mokoa

    Today, 29 January, Wednesday

    Time Temperature Precipitation Wind Pressure Humidity
    00:00 +27°C° 0 mm 3 mps 754 mmHg 81%
    01:00 +27°C° 0 mm 3 mps 754 mmHg 82%
    02:00 +26°C° 0 mm 3 mps 754 mmHg 84%
    03:00 +26°C° 0 mm 3 mps 754 mmHg 85%
    04:00 +26°C° 0 mm 2 mps 754 mmHg 86%
    05:00 +26°C° 0.1 mm 2 mps 754 mmHg 85%
    06:00 +27°C° 0.1 mm 2 mps 755 mmHg 84%
    07:00 +27°C° 0.1 mm 2 mps 755 mmHg 83%
    08:00 +28°C° 0 mm 3 mps 756 mmHg 77%
    09:00 +29°C° 0 mm 3 mps 756 mmHg 72%
    10:00 +30°C° 0 mm 4 mps 756 mmHg 66%
    11:00 +32°C° 0 mm 4 mps 756 mmHg 62%
    12:00 +33°C° 0 mm 5 mps 755 mmHg 59%
    13:00 +34°C° 0 mm 5 mps 755 mmHg 55%
    14:00 +33°C° 0 mm 5 mps 754 mmHg 55%
    15:00 +33°C° 0 mm 4 mps 754 mmHg 55%
    16:00 +33°C° 0 mm 4 mps 753 mmHg 55%
    17:00 +31°C° 0 mm 3 mps 753 mmHg 60%
    18:00 +29°C° 0 mm 3 mps 754 mmHg 65%
    19:00 +28°C° 0 mm 2 mps 754 mmHg 70%
    20:00 +28°C° 0 mm 2 mps 754 mmHg 72%
    21:00 +27°C° 0 mm 2 mps 755 mmHg 75%
    22:00 +27°C° 0 mm 2 mps 755 mmHg 78%
    23:00 +27°C° 0 mm 3 mps 755 mmHg 80%

    Tomorrow, 30 January, Thursday

    Time Temperature Precipitation Wind Pressure Humidity
    00:00 +27°C° 0 mm 3 mps 755 mmHg 82%
    01:00 +26°C° 0 mm 3 mps 755 mmHg 84%
    02:00 +26°C° 0 mm 3 mps 754 mmHg 84%
    03:00 +26°C° 0 mm 3 mps 754 mmHg 85%
    04:00 +26°C° 0 mm 3 mps 754 mmHg 85%
    05:00 +26°C° 0 mm 3 mps 754 mmHg 85%
    06:00 +26°C° 0 mm 3 mps 755 mmHg 85%
    07:00 +26°C° 0 mm 3 mps 756 mmHg 85%
    08:00 +28°C° 0 mm 4 mps 756 mmHg 77%
    09:00 +29°C° 0 mm 4 mps 756 mmHg 69%
    10:00 +32°C° 0 mm 5 mps 756 mmHg 61%
    11:00 +32°C° 0 mm 5 mps 755 mmHg 56%
    12:00 +33°C° 0 mm 5 mps 755 mmHg 52%
    13:00 +34°C° 0 mm 5 mps 754 mmHg 47%
    14:00 +34°C° 0 mm 5 mps 754 mmHg 46%
    15:00 +34°C° 0 mm 5 mps 753 mmHg 45%
    16:00 +33°C° 0 mm 4 mps 752 mmHg 44%
    17:00 +32°C° 0 mm 5 mps 753 mmHg 52%
    18:00 +29°C° 0 mm 5 mps 753 mmHg 60%
    19:00 +28°C° 0 mm 5 mps 754 mmHg 68%
    20:00 +28°C° 0 mm 5 mps 754 mmHg 73%
    21:00 +27°C° 0 mm 4 mps 755 mmHg 77%
    22:00 +27°C° 0 mm 4 mps 755 mmHg 82%
    23:00 +27°C° 0.1 mm 4 mps 755 mmHg 81%

    Day after tomorrow, 31 January, Friday

    Time Temperature Precipitation Wind Pressure Humidity
    00:00 +27°C° 0.1 mm 5 mps 754 mmHg 81%
    01:00 +27°C° 0.1 mm 5 mps 754 mmHg 80%
    02:00 +27°C° 0.1 mm 4 mps 754 mmHg 81%
    03:00 +27°C° 0.1 mm 4 mps 754 mmHg 83%
    04:00 +27°C° 0.1 mm 4 mps 753 mmHg 84%
    05:00 +27°C° 0.1 mm 4 mps 754 mmHg 83%
    06:00 +27°C° 0.1 mm 4 mps 754 mmHg 83%
    07:00 +27°C° 0.1 mm 4 mps 755 mmHg 82%
    08:00 +29°C° 0 mm 5 mps 755 mmHg 77%
    09:00 +30°C° 0 mm 6 mps 756 mmHg 71%
    10:00 +32°C° 0 mm 6 mps 756 mmHg 65%
    11:00 +33°C° 0 mm 7 mps 755 mmHg 62%
    12:00 +33°C° 0 mm 7 mps 755 mmHg 59%
    13:00 +34°C° 0 mm 7 mps 754 mmHg 56%
    14:00 +34°C° 0 mm 7 mps 754 mmHg 56%
    15:00 +34°C° 0 mm 7 mps 753 mmHg 56%
    16:00 +34°C° 0 mm 7 mps 753 mmHg 56%
    17:00 +32°C° 0 mm 6 mps 753 mmHg 61%
    18:00 +30°C° 0 mm 6 mps 753 mmHg 65%
    19:00 +29°C° 0 mm 5 mps 754 mmHg 70%
    20:00 +29°C° 0 mm 5 mps 754 mmHg 71%
    21:00 +29°C° 0 mm 5 mps 754 mmHg 73%
    22:00 +28°C° 0 mm 5 mps 755 mmHg 75%
    23:00 +28°C° 0 mm 6 mps 754 mmHg 77%

    1 February, Saturday

    Time Temperature Precipitation Wind Pressure Humidity
    00:00 +28°C° 0 mm 6 mps 754 mmHg 79%
    01:00 +28°C° 0 mm 6 mps 754 mmHg 81%
    02:00 +28°C° 0 mm 6 mps 754 mmHg 80%
    03:00 +28°C° 0 mm 6 mps 753 mmHg 80%
    04:00 +27°C° 0 mm 6 mps 753 mmHg 80%
    05:00 +28°C° 0 mm 6 mps 754 mmHg 79%
    06:00 +28°C° 0 mm 6 mps 754 mmHg 79%
    07:00 +28°C° 0 mm 6 mps 755 mmHg 79%
    08:00 +29°C° 0 mm 7 mps 755 mmHg 74%
    09:00 +31°C° 0 mm 8 mps 755 mmHg 69%
    10:00 +32°C° 0 mm 8 mps 756 mmHg 64%
    11:00 +33°C° 0 mm 8 mps 755 mmHg 61%
    12:00 +33°C° 0 mm 8 mps 754 mmHg 58%
    13:00 +34°C° 0 mm 8 mps 754 mmHg 56%
    14:00 +34°C° 0 mm 8 mps 753 mmHg 56%
    15:00 +33°C° 0 mm 7 mps 753 mmHg 56%
    16:00 +33°C° 0 mm 7 mps 752 mmHg 56%
    17:00 +32°C° 0 mm 7 mps 752 mmHg 60%
    18:00 +30°C° 0 mm 6 mps 753 mmHg 64%
    19:00 +29°C° 0 mm 5 mps 753 mmHg 68%
    20:00 +28°C° 0 mm 5 mps 754 mmHg 70%
    21:00 +28°C° 0 mm 5 mps 754 mmHg 73%
    22:00 +27°C° 0 mm 5 mps 755 mmHg 76%
    23:00 +27°C° 0 mm 4 mps 755 mmHg 77%

    2 February, Sunday

    Time Temperature Precipitation Wind Pressure Humidity
    00:00 +27°C° 0 mm 4 mps 754 mmHg 78%
    01:00 +27°C° 0 mm 4 mps 754 mmHg 80%
    02:00 +26°C° 0 mm 4 mps 754 mmHg 80%
    03:00 +26°C° 0 mm 4 mps 754 mmHg 81%
    04:00 +26°C° 0 mm 3 mps 754 mmHg 82%
    05:00 +26°C° 0.1 mm 3 mps 754 mmHg 82%
    06:00 +26°C° 0.1 mm 3 mps 755 mmHg 82%
    07:00 +26°C° 0.1 mm 3 mps 755 mmHg 82%
    08:00 +28°C° 0.1 mm 5 mps 755 mmHg 77%
    09:00 +29°C° 0.1 mm 6 mps 756 mmHg 71%
    10:00 +30°C° 0.1 mm 7 mps 756 mmHg 66%
    11:00 +32°C° 0.1 mm 7 mps 755 mmHg 63%
    12:00 +33°C° 0.1 mm 7 mps 755 mmHg 60%
    13:00 +33°C° 0.1 mm 7 mps 754 mmHg 57%
    14:00 +33°C° 0 mm 6 mps 754 mmHg 57%
    15:00 +33°C° 0 mm 6 mps 753 mmHg 57%
    16:00 +33°C° 0 mm 6 mps 753 mmHg 57%
    17:00 +32°C° 0 mm 5 mps 753 mmHg 62%
    18:00 +29°C° 0 mm 5 mps 753 mmHg 68%
    19:00 +28°C° 0 mm 4 mps 753 mmHg 73%
    20:00 +28°C° 0 mm 4 mps 754 mmHg 75%
    21:00 +27°C° 0 mm 3 mps 754 mmHg 77%
    22:00 +27°C° 0 mm 3 mps 755 mmHg 80%
    23:00 +26°C° 0 mm 3 mps 754 mmHg 81%

    3 February, Monday

    Time Temperature Precipitation Wind Pressure Humidity
    00:00 +26°C° 0 mm 3 mps 754 mmHg 82%
    01:00 +26°C° 0 mm 3 mps 754 mmHg 83%
    02:00 +26°C° 0 mm 3 mps 754 mmHg 84%
    03:00 +26°C° 0 mm 3 mps 754 mmHg 85%
    04:00 +25°C° 0 mm 3 mps 754 mmHg 85%
    05:00 +26°C° 0 mm 3 mps 754 mmHg 84%
    06:00 +26°C° 0 mm 3 mps 755 mmHg 83%
    07:00 +26°C° 0 mm 4 mps 755 mmHg 81%
    08:00 +27°C° 0 mm 5 mps 755 mmHg 75%
    09:00 +29°C° 0 mm 6 mps 756 mmHg 69%
    10:00 +30°C° 0 mm 7 mps 756 mmHg 62%
    11:00 +32°C° 0 mm 7 mps 756 mmHg 59%
    12:00 +33°C° 0 mm 7 mps 755 mmHg 57%
    13:00 +33°C° 0 mm 8 mps 754 mmHg 54%
    14:00 +33°C° 0 mm 7 mps 754 mmHg 55%
    15:00 +33°C° 0 mm 7 mps 754 mmHg 55%
    16:00 +33°C° 0 mm 7 mps 753 mmHg 55%
    17:00 +32°C° 0 mm 7 mps 754 mmHg 61%
    18:00 +29°C° 0 mm 6 mps 754 mmHg 67%
    19:00 +28°C° 0 mm 6 mps 755 mmHg 73%
    20:00 +28°C° 0 mm 6 mps 755 mmHg 75%
    21:00 +27°C° 0 mm 5 mps 756 mmHg 77%
    22:00 +27°C° 0 mm 5 mps 756 mmHg 78%
    23:00 +27°C° 0 mm 5 mps 756 mmHg 79%
    Show more